Time,TemperatureF,DewpointF,PressureIn,WindDirection,WindDirectionDegrees,WindSpeedMPH,WindSpeedGustMPH,Humidity,HourlyPrecipIn,Conditions,Clouds,dailyrainin,SoftwareType,DateUTC
2013-01-25 00:04:00,33.6,28.0,28.61,NE,45,11.0,11.0,80,0.00,,,0.00,meteohub,2013-01-25 06:04:00,
2013-01-25 00:09:00,33.8,28.2,28.61,NE,45,8.0,11.0,80,0.00,,,0.00,meteohub,2013-01-25 06:09:00,
2013-01-25 00:14:00,33.6,28.0,28.61,NE,45,8.0,11.0,80,0.00,,,0.00,meteohub,2013-01-25 06:14:00,
2013-01-25 00:19:00,33.8,28.6,28.61,North,0,7.0,11.0,81,0.00,,,0.00,meteohub,2013-01-25 06:19:00,
2013-01-25 00:24:00,33.8,28.6,28.61,NE,45,9.0,11.0,81,0.00,,,0.00,meteohub,2013-01-25 06:24:00,
2013-01-25 00:29:00,34.0,28.8,28.61,NE,45,11.0,11.0,81,0.00,,,0.00,meteohub,2013-01-25 06:29:00,
2013-01-25 00:34:00,33.6,28.4,28.60,NE,45,7.0,11.0,81,0.00,,,0.00,meteohub,2013-01-25 06:34:00,
2013-01-25 00:39:00,33.6,28.4,28.60,NE,45,8.0,11.0,81,0.00,,,0.00,meteohub,2013-01-25 06:39:00,
2013-01-25 00:44:00,33.4,28.6,28.60,NE,45,7.0,11.0,82,0.00,,,0.00,meteohub,2013-01-25 06:44:00,
2013-01-25 00:49:00,33.4,28.6,28.60,North,0,7.0,12.0,82,0.00,,,0.00,meteohub,2013-01-25 06:49:00,
2013-01-25 00:54:00,33.6,28.8,28.60,NE,45,7.0,12.0,82,0.00,,,0.00,meteohub,2013-01-25 06:54:00,
2013-01-25 00:59:00,33.6,28.8,28.60,North,0,8.0,12.0,82,0.00,,,0.00,meteohub,2013-01-25 06:59:00,
2013-01-25 01:04:00,33.6,28.8,28.60,NE,45,10.0,11.0,82,0.00,,,0.00,meteohub,2013-01-25 07:04:00,
2013-01-25 01:09:00,33.6,28.8,28.61,North,0,5.0,11.0,82,0.00,,,0.00,meteohub,2013-01-25 07:09:00,
2013-01-25 01:14:00,33.6,28.9,28.61,North,0,6.0,11.0,83,0.00,,,0.00,meteohub,2013-01-25 07:14:00,
2013-01-25 01:19:00,33.8,29.1,28.61,North,0,4.0,10.0,83,0.00,,,0.00,meteohub,2013-01-25 07:19:00,
2013-01-25 01:24:00,33.8,28.9,28.62,NW,315,2.0,8.0,82,0.00,,,0.00,meteohub,2013-01-25 07:24:00,
2013-01-25 01:29:00,33.6,28.9,28.61,North,0,4.0,8.0,83,0.00,,,0.00,meteohub,2013-01-25 07:29:00,
2013-01-25 01:34:00,33.6,28.9,28.61,NE,45,4.0,8.0,83,0.00,,,0.00,meteohub,2013-01-25 07:34:00,
2013-01-25 01:39:00,33.6,28.9,28.61,North,0,6.0,6.0,83,0.00,,,0.00,meteohub,2013-01-25 07:39:00,
2013-01-25 01:44:00,33.4,28.8,28.61,NE,45,7.0,7.0,83,0.00,,,0.00,meteohub,2013-01-25 07:44:00,
2013-01-25 01:49:00,33.6,28.9,28.60,North,0,7.0,7.0,83,0.00,,,0.00,meteohub,2013-01-25 07:49:00,
2013-01-25 01:54:00,33.3,28.6,28.61,NE,45,2.0,7.0,83,0.00,,,0.00,meteohub,2013-01-25 07:54:00,
2013-01-25 01:59:00,33.1,28.4,28.61,NE,45,6.0,7.0,83,0.00,,,0.00,meteohub,2013-01-25 07:59:00,
2013-01-25 02:04:00,33.3,28.6,28.61,NE,45,6.0,7.0,83,0.00,,,0.00,meteohub,2013-01-25 08:04:00,
2013-01-25 02:09:00,33.1,28.8,28.61,NE,45,4.0,7.0,84,0.00,,,0.00,meteohub,2013-01-25 08:09:00,
2013-01-25 02:14:00,32.9,28.6,28.61,NE,45,4.0,7.0,84,0.00,,,0.00,meteohub,2013-01-25 08:14:00,
2013-01-25 02:19:00,32.7,28.2,28.60,NE,45,8.0,9.0,83,0.00,,,0.00,meteohub,2013-01-25 08:19:00,
2013-01-25 02:24:00,32.7,28.2,28.60,NE,45,8.0,9.0,83,0.00,,,0.00,meteohub,2013-01-25 08:24:00,
2013-01-25 02:29:00,32.5,28.0,28.60,NE,45,8.0,11.0,83,0.00,,,0.00,meteohub,2013-01-25 08:29:00,
2013-01-25 02:34:00,32.4,27.9,28.60,North,0,10.0,11.0,83,0.00,,,0.00,meteohub,2013-01-25 08:34:00,
2013-01-25 02:39:00,32.2,27.7,28.59,NE,45,11.0,11.0,83,0.00,,,0.00,meteohub,2013-01-25 08:39:00,
2013-01-25 02:45:00,32.2,27.7,28.60,NE,45,10.0,11.0,83,0.00,,,0.00,meteohub,2013-01-25 08:45:00,
2013-01-25 02:50:00,32.2,27.7,28.61,NE,45,8.0,12.0,83,0.00,,,0.00,meteohub,2013-01-25 08:50:00,
2013-01-25 02:55:00,32.2,27.7,28.62,NE,45,9.0,13.0,83,0.00,,,0.00,meteohub,2013-01-25 08:55:00,
2013-01-25 03:00:00,32.0,27.5,28.62,North,0,7.0,13.0,83,0.00,,,0.00,meteohub,2013-01-25 09:00:00,
2013-01-25 03:05:00,32.0,27.5,28.61,North,0,6.0,13.0,83,0.00,,,0.00,meteohub,2013-01-25 09:05:00,
2013-01-25 03:10:00,32.0,27.5,28.63,NW,315,5.0,11.0,83,0.00,,,0.00,meteohub,2013-01-25 09:10:00,
2013-01-25 03:15:00,31.6,27.3,28.62,North,0,3.0,11.0,84,0.00,,,0.00,meteohub,2013-01-25 09:15:00,
2013-01-25 03:20:00,31.8,27.5,28.62,NE,45,8.0,8.0,84,0.00,,,0.00,meteohub,2013-01-25 09:20:00,
2013-01-25 03:25:00,31.5,27.1,28.62,North,0,4.0,8.0,84,0.00,,,0.00,meteohub,2013-01-25 09:25:00,
2013-01-25 03:30:00,31.6,27.3,28.62,East,90,2.0,8.0,84,0.00,,,0.00,meteohub,2013-01-25 09:30:00,
2013-01-25 03:35:00,31.5,27.1,28.62,NE,45,4.0,8.0,84,0.00,,,0.00,meteohub,2013-01-25 09:35:00,
2013-01-25 03:40:00,31.8,27.9,28.62,NE,45,4.0,7.0,85,0.00,,,0.00,meteohub,2013-01-25 09:40:00,
2013-01-25 03:45:00,31.6,27.3,28.62,NW,315,3.0,6.0,84,0.00,,,0.00,meteohub,2013-01-25 09:45:00,
2013-01-25 03:50:00,31.6,27.3,28.63,NE,45,4.0,7.0,84,0.00,,,0.00,meteohub,2013-01-25 09:50:00,
2013-01-25 03:55:00,31.5,27.5,28.62,NNE,23,2.0,7.0,85,0.00,,,0.00,meteohub,2013-01-25 09:55:00,
2013-01-25 04:00:00,31.5,27.5,28.62,North,0,4.0,7.0,85,0.00,,,0.00,meteohub,2013-01-25 10:00:00,
2013-01-25 04:05:00,31.5,27.5,28.62,North,0,8.0,8.0,85,0.00,,,0.00,meteohub,2013-01-25 10:05:00,
2013-01-25 04:10:00,31.5,27.5,28.61,NE,45,9.0,9.0,85,0.00,,,0.00,meteohub,2013-01-25 10:10:00,
2013-01-25 04:15:00,31.5,27.1,28.62,North,0,10.0,10.0,84,0.00,,,0.00,meteohub,2013-01-25 10:15:00,
2013-01-25 04:20:00,31.5,27.1,28.62,North,0,7.0,10.0,84,0.00,,,0.00,meteohub,2013-01-25 10:20:00,
2013-01-25 04:25:00,31.3,27.0,28.62,North,0,7.0,10.0,84,0.00,,,0.00,meteohub,2013-01-25 10:25:00,
2013-01-25 04:30:00,31.3,27.0,28.60,NE,45,5.0,10.0,84,0.00,,,0.00,meteohub,2013-01-25 10:30:00,
2013-01-25 04:35:00,31.1,26.8,28.61,East,90,4.0,10.0,84,0.00,,,0.00,meteohub,2013-01-25 10:35:00,
2013-01-25 04:40:00,31.5,27.1,28.61,North,0,4.0,9.0,84,0.00,,,0.00,meteohub,2013-01-25 10:40:00,
2013-01-25 04:45:00,31.3,27.0,28.61,North,0,4.0,6.0,84,0.00,,,0.00,meteohub,2013-01-25 10:45:00,
2013-01-25 04:50:00,31.3,27.0,28.61,NE,45,4.0,6.0,84,0.00,,,0.00,meteohub,2013-01-25 10:50:00,
2013-01-25 04:55:00,30.9,26.6,28.62,NE,45,4.0,7.0,84,0.00,,,0.00,meteohub,2013-01-25 10:55:00,
2013-01-25 05:00:00,30.9,26.6,28.62,NE,45,5.0,7.0,84,0.00,,,0.00,meteohub,2013-01-25 11:00:00,
2013-01-25 05:05:00,30.7,26.4,28.62,North,0,3.0,7.0,84,0.00,,,0.00,meteohub,2013-01-25 11:05:00,
2013-01-25 05:10:00,30.6,26.2,28.62,ENE,68,4.0,6.0,84,0.00,,,0.00,meteohub,2013-01-25 11:10:00,
2013-01-25 05:15:00,30.2,26.2,28.62,North,0,3.0,6.0,85,0.00,,,0.00,meteohub,2013-01-25 11:15:00,
2013-01-25 05:20:00,30.2,26.2,28.62,NE,45,3.0,6.0,85,0.00,,,0.00,meteohub,2013-01-25 11:20:00,
2013-01-25 05:25:00,30.2,26.6,28.61,North,0,1.0,6.0,86,0.00,,,0.00,meteohub,2013-01-25 11:25:00,
2013-01-25 05:30:00,30.0,26.4,28.62,North,0,0.0,4.0,86,0.00,,,0.00,meteohub,2013-01-25 11:30:00,
2013-01-25 05:35:00,29.8,25.9,28.61,South,180,2.0,4.0,85,0.00,,,0.00,meteohub,2013-01-25 11:35:00,
2013-01-25 05:40:00,29.8,26.2,28.62,North,0,2.0,2.0,86,0.00,,,0.00,meteohub,2013-01-25 11:40:00,
2013-01-25 05:45:00,29.5,25.9,28.63,NW,315,3.0,3.0,86,0.00,,,0.00,meteohub,2013-01-25 11:45:00,
2013-01-25 05:50:00,29.1,25.7,28.63,SW,225,2.0,3.0,87,0.00,,,0.00,meteohub,2013-01-25 11:50:00,
2013-01-25 05:55:00,28.9,25.5,28.64,NW,315,5.0,5.0,87,0.00,,,0.00,meteohub,2013-01-25 11:55:00,
2013-01-25 06:00:00,28.0,25.0,28.64,North,0,6.0,6.0,88,0.00,,,0.00,meteohub,2013-01-25 12:00:00,
2013-01-25 06:05:00,27.7,25.2,28.64,North,0,4.0,8.0,90,0.00,,,0.00,meteohub,2013-01-25 12:05:00,
2013-01-25 06:10:00,27.9,25.3,28.64,North,0,4.0,8.0,90,0.00,,,0.00,meteohub,2013-01-25 12:10:00,
2013-01-25 06:15:00,28.0,25.7,28.64,NW,315,5.0,8.0,91,0.00,,,0.00,meteohub,2013-01-25 12:15:00,
2013-01-25 06:20:00,28.0,25.7,28.64,North,0,8.0,8.0,91,0.00,,,0.00,meteohub,2013-01-25 12:20:00,
2013-01-25 06:26:00,28.2,25.7,28.64,North,0,6.0,8.0,90,0.00,,,0.00,meteohub,2013-01-25 12:26:00,
2013-01-25 06:31:00,28.4,25.5,28.64,North,0,4.0,8.0,89,0.00,,,0.00,meteohub,2013-01-25 12:31:00,
2013-01-25 06:36:00,28.4,25.5,28.65,North,0,3.0,8.0,89,0.00,,,0.00,meteohub,2013-01-25 12:36:00,
2013-01-25 06:41:00,28.4,25.5,28.65,NW,315,4.0,7.0,89,0.00,,,0.00,meteohub,2013-01-25 12:41:00,
2013-01-25 06:46:00,28.4,25.5,28.66,NW,315,6.0,6.0,89,0.00,,,0.00,meteohub,2013-01-25 12:46:00,
2013-01-25 06:51:00,28.4,25.5,28.67,West,270,3.0,7.0,89,0.00,,,0.00,meteohub,2013-01-25 12:51:00,
2013-01-25 06:56:00,28.6,25.5,28.67,North,0,2.0,7.0,88,0.00,,,0.00,meteohub,2013-01-25 12:56:00,
2013-01-25 07:01:00,28.4,25.5,28.67,WNW,293,4.0,7.0,89,0.00,,,0.00,meteohub,2013-01-25 13:01:00,
2013-01-25 07:06:00,28.2,25.3,28.68,NW,315,5.0,5.0,89,0.00,,,0.00,meteohub,2013-01-25 13:06:00,
2013-01-25 07:11:00,28.2,25.3,28.68,NW,315,4.0,7.0,89,0.00,,,0.00,meteohub,2013-01-25 13:11:00,
2013-01-25 07:16:00,28.2,25.3,28.69,NW,315,8.0,9.0,89,0.00,,,0.00,meteohub,2013-01-25 13:16:00,
2013-01-25 07:21:00,28.4,25.5,28.69,NW,315,8.0,11.0,89,0.00,,,0.00,meteohub,2013-01-25 13:21:00,
2013-01-25 07:26:00,28.6,25.7,28.69,North,0,7.0,11.0,89,0.00,,,0.00,meteohub,2013-01-25 13:26:00,
2013-01-25 07:31:00,28.6,25.7,28.69,North,0,5.0,11.0,89,0.00,,,0.00,meteohub,2013-01-25 13:31:00,
2013-01-25 07:36:00,28.6,25.7,28.69,North,0,7.0,11.0,89,0.00,,,0.00,meteohub,2013-01-25 13:36:00,
2013-01-25 07:41:00,28.6,25.7,28.69,North,0,8.0,9.0,89,0.00,,,0.00,meteohub,2013-01-25 13:41:00,
2013-01-25 07:46:00,28.8,25.7,28.69,North,0,4.0,8.0,88,0.00,,,0.00,meteohub,2013-01-25 13:46:00,
2013-01-25 07:51:00,28.9,25.9,28.69,North,0,7.0,8.0,88,0.00,,,0.00,meteohub,2013-01-25 13:51:00,
2013-01-25 07:56:00,29.3,26.2,28.69,North,0,9.0,9.0,88,0.00,,,0.00,meteohub,2013-01-25 13:56:00,
2013-01-25 08:01:00,29.1,25.7,28.69,NW,315,6.0,9.0,87,0.00,,,0.00,meteohub,2013-01-25 14:01:00,
2013-01-25 08:06:00,29.3,25.7,28.70,NW,315,3.0,9.0,86,0.00,,,0.00,meteohub,2013-01-25 14:06:00,
2013-01-25 08:11:00,29.5,26.1,28.70,North,0,7.0,9.0,87,0.00,,,0.00,meteohub,2013-01-25 14:11:00,
2013-01-25 08:16:00,29.8,26.2,28.70,North,0,5.0,7.0,86,0.00,,,0.00,meteohub,2013-01-25 14:16:00,
2013-01-25 08:21:00,30.2,26.2,28.70,NE,45,6.0,7.0,85,0.00,,,0.00,meteohub,2013-01-25 14:21:00,
2013-01-25 08:26:00,30.6,26.2,28.70,North,0,4.0,7.0,84,0.00,,,0.00,meteohub,2013-01-25 14:26:00,
2013-01-25 08:31:00,30.9,26.6,28.70,North,0,5.0,6.0,84,0.00,,,0.00,meteohub,2013-01-25 14:31:00,
2013-01-25 08:36:00,31.1,26.6,28.71,North,0,5.0,6.0,83,0.00,,,0.00,meteohub,2013-01-25 14:36:00,
2013-01-25 08:41:00,31.6,26.8,28.71,North,0,4.0,6.0,82,0.00,,,0.00,meteohub,2013-01-25 14:41:00,
2013-01-25 08:46:00,31.6,26.8,28.71,North,0,4.0,6.0,82,0.00,,,0.00,meteohub,2013-01-25 14:46:00,
2013-01-25 08:51:00,32.0,27.1,28.70,North,0,4.0,7.0,82,0.00,,,0.00,meteohub,2013-01-25 14:51:00,
2013-01-25 08:56:00,32.0,26.6,28.71,North,0,7.0,7.0,80,0.00,,,0.00,meteohub,2013-01-25 14:56:00,
2013-01-25 09:01:00,31.8,26.6,28.71,North,0,3.0,8.0,81,0.00,,,0.00,meteohub,2013-01-25 15:01:00,
2013-01-25 09:06:00,32.7,27.5,28.71,North,0,7.0,8.0,81,0.00,,,0.00,meteohub,2013-01-25 15:06:00,
2013-01-25 09:11:00,32.9,27.5,28.71,North,0,5.0,8.0,80,0.00,,,0.00,meteohub,2013-01-25 15:11:00,
2013-01-25 09:16:00,33.6,27.5,28.71,North,0,6.0,7.0,78,0.00,,,0.00,meteohub,2013-01-25 15:16:00,
2013-01-25 09:22:00,34.0,27.5,28.71,North,0,4.0,7.0,77,0.00,,,0.00,meteohub,2013-01-25 15:22:00,
2013-01-25 09:27:00,34.5,27.5,28.71,North,0,8.0,8.0,75,0.00,,,0.00,meteohub,2013-01-25 15:27:00,
2013-01-25 09:32:00,34.9,27.5,28.71,North,0,8.0,9.0,74,0.00,,,0.00,meteohub,2013-01-25 15:32:00,
2013-01-25 09:37:00,35.4,27.7,28.71,North,0,8.0,9.0,73,0.00,,,0.00,meteohub,2013-01-25 15:37:00,
2013-01-25 09:42:00,35.4,27.7,28.71,North,0,5.0,9.0,73,0.00,,,0.00,meteohub,2013-01-25 15:42:00,
2013-01-25 09:47:00,35.8,27.3,28.71,North,0,7.0,9.0,71,0.00,,,0.00,meteohub,2013-01-25 15:47:00,
2013-01-25 09:52:00,36.0,27.5,28.72,NW,315,8.0,8.0,71,0.00,,,0.00,meteohub,2013-01-25 15:52:00,
2013-01-25 09:57:00,36.7,27.9,28.72,North,0,8.0,8.0,70,0.00,,,0.00,meteohub,2013-01-25 15:57:00,
2013-01-25 10:02:00,37.2,28.0,28.71,North,0,5.0,8.0,69,0.00,,,0.00,meteohub,2013-01-25 16:02:00,
2013-01-25 10:07:00,37.8,28.2,28.71,NW,315,8.0,8.0,68,0.00,,,0.00,meteohub,2013-01-25 16:07:00,
2013-01-25 10:12:00,37.9,28.0,28.71,North,0,6.0,8.0,67,0.00,,,0.00,meteohub,2013-01-25 16:12:00,
2013-01-25 10:17:00,37.8,27.9,28.71,NE,45,9.0,9.0,67,0.00,,,0.00,meteohub,2013-01-25 16:17:00,
2013-01-25 10:22:00,38.7,28.2,28.71,North,0,4.0,10.0,66,0.00,,,0.00,meteohub,2013-01-25 16:22:00,
2013-01-25 10:27:00,39.0,28.2,28.71,NW,315,4.0,10.0,65,0.00,,,0.00,meteohub,2013-01-25 16:27:00,
2013-01-25 10:32:00,39.4,28.2,28.72,North,0,5.0,10.0,64,0.00,,,0.00,meteohub,2013-01-25 16:32:00,
2013-01-25 10:37:00,40.1,28.6,28.72,NW,315,4.0,9.0,63,0.00,,,0.00,meteohub,2013-01-25 16:37:00,
2013-01-25 10:42:00,40.5,28.4,28.72,North,0,5.0,9.0,62,0.00,,,0.00,meteohub,2013-01-25 16:42:00,
2013-01-25 10:47:00,41.0,28.9,28.73,North,0,8.0,9.0,62,0.00,,,0.00,meteohub,2013-01-25 16:47:00,
2013-01-25 10:52:00,41.5,28.2,28.73,NW,315,8.0,9.0,59,0.00,,,0.00,meteohub,2013-01-25 16:52:00,
2013-01-25 10:57:00,41.5,28.2,28.73,NW,315,4.0,8.0,59,0.00,,,0.00,meteohub,2013-01-25 16:57:00,
2013-01-25 11:02:00,41.9,28.6,28.73,NE,45,6.0,8.0,59,0.00,,,0.00,meteohub,2013-01-25 17:02:00,
2013-01-25 11:07:00,41.7,28.0,28.72,North,0,7.0,9.0,58,0.00,,,0.00,meteohub,2013-01-25 17:07:00,
2013-01-25 11:12:00,42.3,28.9,28.72,North,0,8.0,9.0,59,0.00,,,0.00,meteohub,2013-01-25 17:12:00,
2013-01-25 11:17:00,42.6,28.9,28.72,North,0,5.0,9.0,58,0.00,,,0.00,meteohub,2013-01-25 17:17:00,
2013-01-25 11:22:00,43.0,29.3,28.72,NW,315,4.0,9.0,58,0.00,,,0.00,meteohub,2013-01-25 17:22:00,
2013-01-25 11:27:00,43.9,29.7,28.72,NE,45,9.0,9.0,57,0.00,,,0.00,meteohub,2013-01-25 17:27:00,
2013-01-25 11:32:00,43.9,28.8,28.72,West,270,6.0,9.0,55,0.00,,,0.00,meteohub,2013-01-25 17:32:00,
2013-01-25 11:37:00,43.9,29.1,28.71,North,0,4.0,9.0,56,0.00,,,0.00,meteohub,2013-01-25 17:37:00,
2013-01-25 11:42:00,44.2,29.1,28.71,NE,45,7.0,9.0,55,0.00,,,0.00,meteohub,2013-01-25 17:42:00,
2013-01-25 11:47:00,44.4,29.7,28.71,NW,315,4.0,9.0,56,0.00,,,0.00,meteohub,2013-01-25 17:47:00,
2013-01-25 11:52:00,44.8,29.1,28.71,North,0,4.0,9.0,54,0.00,,,0.00,meteohub,2013-01-25 17:52:00,
2013-01-25 11:57:00,45.5,28.4,28.71,North,0,11.0,11.0,51,0.00,,,0.00,meteohub,2013-01-25 17:57:00,
2013-01-25 12:02:00,45.9,28.2,28.71,East,90,11.0,13.0,50,0.00,,,0.00,meteohub,2013-01-25 18:02:00,
2013-01-25 12:07:00,45.7,28.6,28.70,NE,45,12.0,13.0,51,0.00,,,0.00,meteohub,2013-01-25 18:07:00,
2013-01-25 12:12:00,46.2,29.1,28.70,SW,225,12.0,13.0,51,0.00,,,0.00,meteohub,2013-01-25 18:12:00,
2013-01-25 12:17:00,45.9,29.3,28.69,North,0,9.0,14.0,52,0.00,,,0.00,meteohub,2013-01-25 18:17:00,
2013-01-25 12:22:00,46.4,28.8,28.69,NE,45,12.0,14.0,50,0.00,,,0.00,meteohub,2013-01-25 18:22:00,
2013-01-25 12:27:00,46.9,29.8,28.69,NW,315,8.0,15.0,51,0.00,,,0.00,meteohub,2013-01-25 18:27:00,
2013-01-25 12:32:00,47.3,29.1,28.69,NE,45,5.0,15.0,49,0.00,,,0.00,meteohub,2013-01-25 18:32:00,
2013-01-25 12:37:00,47.7,28.9,28.69,NE,45,9.0,15.0,48,0.00,,,0.00,meteohub,2013-01-25 18:37:00,
2013-01-25 12:42:00,47.7,30.0,28.69,NNW,338,7.0,12.0,50,0.00,,,0.00,meteohub,2013-01-25 18:42:00,
2013-01-25 12:47:00,48.2,30.0,28.69,North,0,11.0,12.0,49,0.00,,,0.00,meteohub,2013-01-25 18:47:00,
2013-01-25 12:52:00,48.2,29.5,28.69,NE,45,6.0,13.0,48,0.00,,,0.00,meteohub,2013-01-25 18:52:00,
2013-01-25 12:57:00,48.6,29.8,28.70,North,0,8.0,13.0,48,0.00,,,0.00,meteohub,2013-01-25 18:57:00,
2013-01-25 13:02:00,48.9,30.0,28.70,WNW,293,6.0,13.0,48,0.00,,,0.00,meteohub,2013-01-25 19:02:00,
2013-01-25 13:07:00,49.5,29.5,28.70,North,0,6.0,11.0,46,0.00,,,0.00,meteohub,2013-01-25 19:07:00,
2013-01-25 13:12:00,50.0,29.5,28.70,East,90,6.0,11.0,45,0.00,,,0.00,meteohub,2013-01-25 19:12:00,
2013-01-25 13:17:00,50.0,29.5,28.70,North,0,8.0,10.0,45,0.00,,,0.00,meteohub,2013-01-25 19:17:00,
2013-01-25 13:22:00,50.5,30.0,28.70,NW,315,8.0,8.0,45,0.00,,,0.00,meteohub,2013-01-25 19:22:00,
2013-01-25 13:27:00,50.2,29.7,28.70,NE,45,5.0,10.0,45,0.00,,,0.00,meteohub,2013-01-25 19:27:00,
2013-01-25 13:32:00,50.2,29.1,28.70,NW,315,7.0,10.0,44,0.00,,,0.00,meteohub,2013-01-25 19:32:00,
2013-01-25 13:37:00,50.4,29.8,28.69,NE,45,4.0,13.0,45,0.00,,,0.00,meteohub,2013-01-25 19:37:00,
2013-01-25 13:42:00,50.7,30.2,28.69,NE,45,6.0,13.0,45,0.00,,,0.00,meteohub,2013-01-25 19:42:00,
2013-01-25 13:47:00,51.1,29.3,28.69,North,0,6.0,13.0,43,0.00,,,0.00,meteohub,2013-01-25 19:47:00,
2013-01-25 13:52:00,51.1,28.8,28.69,North,0,9.0,10.0,42,0.00,,,0.00,meteohub,2013-01-25 19:52:00,
2013-01-25 13:57:00,51.3,29.5,28.69,North,0,5.0,10.0,43,0.00,,,0.00,meteohub,2013-01-25 19:57:00,
2013-01-25 14:02:00,51.8,29.5,28.69,North,0,4.0,10.0,42,0.00,,,0.00,meteohub,2013-01-25 20:02:00,
2013-01-25 14:07:00,51.8,29.5,28.68,NE,45,7.0,11.0,42,0.00,,,0.00,meteohub,2013-01-25 20:07:00,
2013-01-25 14:12:00,51.8,30.0,28.68,North,0,8.0,12.0,43,0.00,,,0.00,meteohub,2013-01-25 20:12:00,
2013-01-25 14:17:00,51.8,30.0,28.68,NE,45,8.0,12.0,43,0.00,,,0.00,meteohub,2013-01-25 20:17:00,
2013-01-25 14:22:00,52.0,30.2,28.68,North,0,5.0,12.0,43,0.00,,,0.00,meteohub,2013-01-25 20:22:00,
2013-01-25 14:27:00,52.3,29.3,28.67,SW,225,8.0,11.0,41,0.00,,,0.00,meteohub,2013-01-25 20:27:00,
2013-01-25 14:32:00,52.5,28.9,28.67,NE,45,11.0,11.0,40,0.00,,,0.00,meteohub,2013-01-25 20:32:00,
2013-01-25 14:37:00,52.5,29.5,28.67,NE,45,8.0,11.0,41,0.00,,,0.00,meteohub,2013-01-25 20:37:00,
2013-01-25 14:42:00,52.3,29.3,28.67,NNW,338,10.0,11.0,41,0.00,,,0.00,meteohub,2013-01-25 20:42:00,
2013-01-25 14:47:00,52.3,28.8,28.67,NE,45,5.0,11.0,40,0.00,,,0.00,meteohub,2013-01-25 20:47:00,
2013-01-25 14:52:00,52.3,28.8,28.67,NE,45,13.0,13.0,40,0.00,,,0.00,meteohub,2013-01-25 20:52:00,
2013-01-25 14:57:00,52.7,29.1,28.67,North,0,11.0,13.0,40,0.00,,,0.00,meteohub,2013-01-25 20:57:00,
2013-01-25 15:02:00,52.2,29.1,28.67,North,0,4.0,13.0,41,0.00,,,0.00,meteohub,2013-01-25 21:02:00,
2013-01-25 15:07:00,51.6,29.3,28.68,NE,45,8.0,13.0,42,0.00,,,0.00,meteohub,2013-01-25 21:07:00,
2013-01-25 15:12:00,51.6,29.3,28.67,North,0,4.0,11.0,42,0.00,,,0.00,meteohub,2013-01-25 21:12:00,
2013-01-25 15:17:00,52.0,29.7,28.68,East,90,7.0,11.0,42,0.00,,,0.00,meteohub,2013-01-25 21:17:00,
2013-01-25 15:23:00,52.9,29.3,28.68,NE,45,6.0,11.0,40,0.00,,,0.00,meteohub,2013-01-25 21:23:00,
2013-01-25 15:28:00,52.7,29.1,28.67,NE,45,6.0,11.0,40,0.00,,,0.00,meteohub,2013-01-25 21:28:00,
2013-01-25 15:33:00,52.5,28.9,28.67,NE,45,7.0,11.0,40,0.00,,,0.00,meteohub,2013-01-25 21:33:00,
2013-01-25 15:38:00,53.4,29.7,28.67,NE,45,4.0,11.0,40,0.00,,,0.00,meteohub,2013-01-25 21:38:00,
2013-01-25 15:43:00,53.4,29.1,28.67,North,0,9.0,9.0,39,0.00,,,0.00,meteohub,2013-01-25 21:43:00,
2013-01-25 15:48:00,53.2,29.5,28.66,NE,45,6.0,10.0,40,0.00,,,0.00,meteohub,2013-01-25 21:48:00,
2013-01-25 15:53:00,53.4,29.7,28.66,NE,45,8.0,10.0,40,0.00,,,0.00,meteohub,2013-01-25 21:53:00,
2013-01-25 15:58:00,53.6,30.4,28.66,NE,45,8.0,10.0,41,0.00,,,0.00,meteohub,2013-01-25 21:58:00,
2013-01-25 16:03:00,53.4,29.1,28.66,NE,45,7.0,10.0,39,0.00,,,0.00,meteohub,2013-01-25 22:03:00,
2013-01-25 16:08:00,53.6,29.8,28.66,NE,45,8.0,12.0,40,0.00,,,0.00,meteohub,2013-01-25 22:08:00,
2013-01-25 16:13:00,53.1,28.8,28.66,NE,45,8.0,12.0,39,0.00,,,0.00,meteohub,2013-01-25 22:13:00,
2013-01-25 16:18:00,52.5,29.5,28.66,NE,45,8.0,12.0,41,0.00,,,0.00,meteohub,2013-01-25 22:18:00,
2013-01-25 16:23:00,52.2,29.8,28.66,North,0,8.0,9.0,42,0.00,,,0.00,meteohub,2013-01-25 22:23:00,
2013-01-25 16:28:00,52.2,29.8,28.66,NE,45,9.0,9.0,42,0.00,,,0.00,meteohub,2013-01-25 22:28:00,
2013-01-25 16:33:00,51.8,29.5,28.66,NE,45,8.0,11.0,42,0.00,,,0.00,meteohub,2013-01-25 22:33:00,
2013-01-25 16:38:00,51.6,29.3,28.66,NE,45,9.0,11.0,42,0.00,,,0.00,meteohub,2013-01-25 22:38:00,
2013-01-25 16:43:00,51.4,29.7,28.66,East,90,6.0,11.0,43,0.00,,,0.00,meteohub,2013-01-25 22:43:00,
2013-01-25 16:48:00,51.3,29.5,28.67,North,0,4.0,9.0,43,0.00,,,0.00,meteohub,2013-01-25 22:48:00,
2013-01-25 16:53:00,51.3,30.0,28.66,NE,45,8.0,9.0,44,0.00,,,0.00,meteohub,2013-01-25 22:53:00,
2013-01-25 16:58:00,50.7,30.2,28.66,NE,45,5.0,8.0,45,0.00,,,0.00,meteohub,2013-01-25 22:58:00,
2013-01-25 17:03:00,50.7,30.2,28.66,NE,45,6.0,9.0,45,0.00,,,0.00,meteohub,2013-01-25 23:03:00,
2013-01-25 17:08:00,50.4,29.8,28.66,NE,45,7.0,9.0,45,0.00,,,0.00,meteohub,2013-01-25 23:08:00,
2013-01-25 17:13:00,50.2,29.7,28.66,NE,45,7.0,7.0,45,0.00,,,0.00,meteohub,2013-01-25 23:13:00,
2013-01-25 17:18:00,50.2,30.2,28.66,NE,45,6.0,8.0,46,0.00,,,0.00,meteohub,2013-01-25 23:18:00,
2013-01-25 17:23:00,50.2,30.2,28.66,NE,45,5.0,8.0,46,0.00,,,0.00,meteohub,2013-01-25 23:23:00,
2013-01-25 17:28:00,49.8,30.4,28.66,NE,45,8.0,8.0,47,0.00,,,0.00,meteohub,2013-01-25 23:28:00,
2013-01-25 17:33:00,49.8,30.4,28.67,NE,45,5.0,8.0,47,0.00,,,0.00,meteohub,2013-01-25 23:33:00,
2013-01-25 17:38:00,49.6,30.7,28.67,NNW,338,4.0,8.0,48,0.00,,,0.00,meteohub,2013-01-25 23:38:00,
2013-01-25 17:43:00,49.3,30.4,28.66,NE,45,6.0,8.0,48,0.00,,,0.00,meteohub,2013-01-25 23:43:00,
2013-01-25 17:48:00,49.1,30.7,28.67,NE,45,4.0,8.0,49,0.00,,,0.00,meteohub,2013-01-25 23:48:00,
2013-01-25 17:53:00,48.9,30.0,28.67,NE,45,4.0,8.0,48,0.00,,,0.00,meteohub,2013-01-25 23:53:00,
2013-01-25 17:58:00,48.9,30.6,28.68,North,0,4.0,7.0,49,0.00,,,0.00,meteohub,2013-01-25 23:58:00,
2013-01-25 18:03:00,48.6,30.2,28.67,NE,45,7.0,7.0,49,0.00,,,0.00,meteohub,2013-01-26 00:03:00,
2013-01-25 18:08:00,48.4,30.6,28.67,North,0,6.0,7.0,50,0.00,,,0.00,meteohub,2013-01-26 00:08:00,
2013-01-25 18:14:00,48.2,30.4,28.67,NE,45,6.0,7.0,50,0.00,,,0.00,meteohub,2013-01-26 00:14:00,
2013-01-25 18:19:00,48.0,30.2,28.66,North,0,5.0,7.0,50,0.00,,,0.00,meteohub,2013-01-26 00:19:00,
2013-01-25 18:24:00,47.8,30.0,28.67,NE,45,6.0,8.0,50,0.00,,,0.00,meteohub,2013-01-26 00:24:00,
2013-01-25 18:29:00,47.7,30.0,28.67,NE,45,5.0,9.0,50,0.00,,,0.00,meteohub,2013-01-26 00:29:00,
2013-01-25 18:34:00,47.7,30.0,28.66,NE,45,8.0,9.0,50,0.00,,,0.00,meteohub,2013-01-26 00:34:00,
2013-01-25 18:39:00,47.3,30.0,28.66,NE,45,5.0,9.0,51,0.00,,,0.00,meteohub,2013-01-26 00:39:00,
2013-01-25 18:44:00,47.1,29.8,28.66,NE,45,10.0,11.0,51,0.00,,,0.00,meteohub,2013-01-26 00:44:00,
2013-01-25 18:49:00,46.8,29.7,28.66,North,0,8.0,11.0,51,0.00,,,0.00,meteohub,2013-01-26 00:49:00,
2013-01-25 18:54:00,46.8,30.0,28.66,ENE,68,4.0,11.0,52,0.00,,,0.00,meteohub,2013-01-26 00:54:00,
2013-01-25 18:59:00,46.4,29.7,28.66,NE,45,4.0,10.0,52,0.00,,,0.00,meteohub,2013-01-26 00:59:00,
2013-01-25 19:04:00,46.2,30.0,28.67,East,90,3.0,8.0,53,0.00,,,0.00,meteohub,2013-01-26 01:04:00,
2013-01-25 19:09:00,46.2,30.0,28.67,North,0,7.0,8.0,53,0.00,,,0.00,meteohub,2013-01-26 01:09:00,
2013-01-25 19:14:00,46.0,29.8,28.67,NE,45,4.0,8.0,53,0.00,,,0.00,meteohub,2013-01-26 01:14:00,
2013-01-25 19:19:00,46.0,30.4,28.67,NE,45,4.0,7.0,54,0.00,,,0.00,meteohub,2013-01-26 01:19:00,
2013-01-25 19:24:00,45.9,30.2,28.69,NW,315,4.0,7.0,54,0.00,,,0.00,meteohub,2013-01-26 01:24:00,
2013-01-25 19:29:00,45.7,30.4,28.68,East,90,3.0,7.0,55,0.00,,,0.00,meteohub,2013-01-26 01:29:00,
2013-01-25 19:34:00,45.3,30.0,28.68,ENE,68,3.0,7.0,55,0.00,,,0.00,meteohub,2013-01-26 01:34:00,
2013-01-25 19:39:00,45.1,30.4,28.69,NE,45,4.0,6.0,56,0.00,,,0.00,meteohub,2013-01-26 01:39:00,
2013-01-25 19:44:00,45.0,30.2,28.68,NE,45,3.0,5.0,56,0.00,,,0.00,meteohub,2013-01-26 01:44:00,
2013-01-25 19:49:00,44.8,30.6,28.68,NE,45,4.0,5.0,57,0.00,,,0.00,meteohub,2013-01-26 01:49:00,
2013-01-25 19:54:00,44.2,30.0,28.68,NE,45,4.0,5.0,57,0.00,,,0.00,meteohub,2013-01-26 01:54:00,
2013-01-25 19:59:00,44.2,30.4,28.68,NE,45,4.0,5.0,58,0.00,,,0.00,meteohub,2013-01-26 01:59:00,
2013-01-25 20:04:00,44.2,30.4,28.67,North,0,4.0,7.0,58,0.00,,,0.00,meteohub,2013-01-26 02:04:00,
2013-01-25 20:09:00,44.1,30.2,28.67,NE,45,5.0,7.0,58,0.00,,,0.00,meteohub,2013-01-26 02:09:00,
2013-01-25 20:14:00,44.1,30.7,28.67,East,90,2.0,7.0,59,0.00,,,0.00,meteohub,2013-01-26 02:14:00,
2013-01-25 20:19:00,44.1,30.7,28.67,North,0,5.0,7.0,59,0.00,,,0.00,meteohub,2013-01-26 02:19:00,
2013-01-25 20:24:00,43.9,30.6,28.67,NE,45,7.0,7.0,59,0.00,,,0.00,meteohub,2013-01-26 02:24:00,
2013-01-25 20:29:00,43.9,30.6,28.67,NE,45,4.0,7.0,59,0.00,,,0.00,meteohub,2013-01-26 02:29:00,
2013-01-25 20:34:00,43.5,30.2,28.67,SE,135,2.0,7.0,59,0.00,,,0.00,meteohub,2013-01-26 02:34:00,
2013-01-25 20:39:00,43.5,30.6,28.67,NE,45,2.0,7.0,60,0.00,,,0.00,meteohub,2013-01-26 02:39:00,
2013-01-25 20:44:00,43.5,30.6,28.68,East,90,4.0,7.0,60,0.00,,,0.00,meteohub,2013-01-26 02:44:00,
2013-01-25 20:49:00,43.3,30.7,28.68,NE,45,4.0,4.0,61,0.00,,,0.00,meteohub,2013-01-26 02:49:00,
2013-01-25 20:54:00,43.5,31.3,28.68,ENE,68,4.0,4.0,62,0.00,,,0.00,meteohub,2013-01-26 02:54:00,
2013-01-25 20:59:00,43.2,31.1,28.68,North,0,4.0,5.0,62,0.00,,,0.00,meteohub,2013-01-26 02:59:00,
2013-01-25 21:04:00,43.3,31.3,28.68,NE,45,4.0,5.0,62,0.00,,,0.00,meteohub,2013-01-26 03:04:00,
2013-01-25 21:09:00,43.2,31.1,28.68,NE,45,3.0,6.0,62,0.00,,,0.00,meteohub,2013-01-26 03:09:00,
2013-01-25 21:14:00,43.0,31.3,28.68,NE,45,2.0,6.0,63,0.00,,,0.00,meteohub,2013-01-26 03:14:00,
2013-01-25 21:19:00,42.8,31.1,28.68,East,90,3.0,6.0,63,0.00,,,0.00,meteohub,2013-01-26 03:19:00,
2013-01-25 21:25:00,42.6,31.3,28.68,NE,45,4.0,5.0,64,0.00,,,0.00,meteohub,2013-01-26 03:25:00,
2013-01-25 21:30:00,42.6,30.9,28.68,East,90,4.0,5.0,63,0.00,,,0.00,meteohub,2013-01-26 03:30:00,
2013-01-25 21:35:00,42.6,31.3,28.68,East,90,4.0,7.0,64,0.00,,,0.00,meteohub,2013-01-26 03:35:00,
2013-01-25 21:40:00,42.4,31.1,28.68,East,90,2.0,7.0,64,0.00,,,0.00,meteohub,2013-01-26 03:40:00,
2013-01-25 21:45:00,42.3,30.9,28.68,East,90,3.0,7.0,64,0.00,,,0.00,meteohub,2013-01-26 03:45:00,
2013-01-25 21:50:00,42.1,30.7,28.69,East,90,3.0,6.0,64,0.00,,,0.00,meteohub,2013-01-26 03:50:00,
2013-01-25 21:55:00,42.1,30.7,28.70,East,90,4.0,6.0,64,0.00,,,0.00,meteohub,2013-01-26 03:55:00,
2013-01-25 22:00:00,41.9,30.6,28.71,East,90,3.0,4.0,64,0.00,,,0.00,meteohub,2013-01-26 04:00:00,
2013-01-25 22:05:00,41.9,30.6,28.71,East,90,3.0,4.0,64,0.00,,,0.00,meteohub,2013-01-26 04:05:00,
2013-01-25 22:10:00,41.9,30.6,28.71,East,90,2.0,4.0,64,0.00,,,0.00,meteohub,2013-01-26 04:10:00,
2013-01-25 22:15:00,41.7,30.7,28.71,NE,45,2.0,4.0,65,0.00,,,0.00,meteohub,2013-01-26 04:15:00,
2013-01-25 22:20:00,41.5,30.7,28.70,East,90,3.0,4.0,65,0.00,,,0.00,meteohub,2013-01-26 04:20:00,
2013-01-25 22:25:00,41.5,30.7,28.71,East,90,1.0,3.0,65,0.00,,,0.00,meteohub,2013-01-26 04:25:00,
2013-01-25 22:30:00,41.4,30.6,28.71,SE,135,1.0,3.0,65,0.00,,,0.00,meteohub,2013-01-26 04:30:00,
2013-01-25 22:35:00,41.2,30.4,28.71,SW,225,2.0,3.0,65,0.00,,,0.00,meteohub,2013-01-26 04:35:00,
2013-01-25 22:40:00,40.5,29.7,28.72,SW,225,2.0,3.0,65,0.00,,,0.00,meteohub,2013-01-26 04:40:00,
2013-01-25 22:45:00,40.3,29.8,28.71,SW,225,0.0,2.0,66,0.00,,,0.00,meteohub,2013-01-26 04:45:00,
2013-01-25 22:50:00,40.1,30.0,28.72,North,0,2.0,2.0,67,0.00,,,0.00,meteohub,2013-01-26 04:50:00,
2013-01-25 22:55:00,39.9,30.2,28.71,NE,45,2.0,2.0,68,0.00,,,0.00,meteohub,2013-01-26 04:55:00,
2013-01-25 23:00:00,39.9,30.6,28.71,NE,45,2.0,2.0,69,0.00,,,0.00,meteohub,2013-01-26 05:00:00,
2013-01-25 23:01:00,39.9,30.6,28.71,NE,45,2.0,3.0,69,0.00,,,0.00,meteohub,2013-01-26 05:01:00,
2013-01-25 23:02:00,39.9,30.6,28.71,NE,45,2.0,3.0,69,0.00,,,0.00,meteohub,2013-01-26 05:02:00,
2013-01-25 23:07:00,39.9,30.6,28.71,NE,45,3.0,3.0,69,0.00,,,0.00,meteohub,2013-01-26 05:07:00,
2013-01-25 23:13:00,40.1,30.7,28.71,NE,45,2.0,4.0,69,0.00,,,0.00,meteohub,2013-01-26 05:13:00,
2013-01-25 23:18:00,39.9,30.6,28.70,NE,45,2.0,4.0,69,0.00,,,0.00,meteohub,2013-01-26 05:18:00,
2013-01-25 23:23:00,39.9,30.6,28.71,NE,45,3.0,4.0,69,0.00,,,0.00,meteohub,2013-01-26 05:23:00,
2013-01-25 23:28:00,39.6,30.2,28.71,NE,45,3.0,3.0,69,0.00,,,0.00,meteohub,2013-01-26 05:28:00,
2013-01-25 23:33:00,39.6,30.2,28.71,North,0,2.0,4.0,69,0.00,,,0.00,meteohub,2013-01-26 05:33:00,
2013-01-25 23:38:00,39.2,29.8,28.71,North,0,2.0,4.0,69,0.00,,,0.00,meteohub,2013-01-26 05:38:00,
2013-01-25 23:43:00,39.2,29.8,28.71,North,0,2.0,3.0,69,0.00,,,0.00,meteohub,2013-01-26 05:43:00,
2013-01-25 23:48:00,39.0,29.7,28.71,North,0,2.0,3.0,69,0.00,,,0.00,meteohub,2013-01-26 05:48:00,
2013-01-25 23:53:00,38.7,29.3,28.71,North,0,2.0,3.0,69,0.00,,,0.00,meteohub,2013-01-26 05:53:00,
2013-01-25 23:58:00,38.7,29.7,28.71,NE,45,2.0,3.0,70,0.00,,,0.00,meteohub,2013-01-26 05:58:00,